SCP
0 -0 -0 0 0 0 0 0 0 0 0 0 0 0 0 0 0 0 0 0 0 0 0 0 0 0 0 0 0 0 0 0 0 0 0 0 0 0 0 0 0 0 0
0 0 0 -0 -0 -0 -0 0 0 0 0 0 0 0 0 0 0 0 0 0 0 0 0 0 0 0 0 0 0 0 0 0 0 0 0 0 0 0 0 0 0 0 0
-0 -0 -0 -0 -0 -0 -0 -0 -0 -0 -0 0 0 0 0 0 0 0 0 0 0 0 0 0 0 0 0 0 0 0 0 0 0 0 0 0 0 0 0 0 0 0 0
-0 -0 -0 -0 -0 -0 -0 -0 -0 -0 -0 -0 -0 0 0 0 0 0 0 0 0 0 0 0 0 0 0 0 0 0 0 0 0 0 0 0 0 0 0 0 0 0 0
-0 -0 -0 -0 0 0 0 0 -0 -0 -0 0 0 0 0 0 0 0 0 0 0 0 0 0 0 0 0 0 0 0 0 0 0 0 0 0 0 0 0 0 0 0 0
-0 -0 -0 0 0 0 0 -0 -0 0 -0 -0 0 0 0 0 0 0 0 0 0 0 0 0 0 0 0 0 0 0 0 0 0 0 0 0 0 0 0 0 0 0 0
-0 0 0 0 0 0 0 0 0 0 0 -0 -0 -0 0 0 0 0 0 0 0 0 0 0 0 0 0 0 0 0 0 0 0 0 0 0 0 0 0 0 0 0 0
-0 -0 -0 -0 0 0 0 0 0 0 0 0 0 0 0 0 -0 0 0 0 0 0 0 0 0 0 0 0 0 0 0 0 0 0 0 0 0 0 0 0 0 0 0
0 -0 0 0 0 0 0 0 0 0 0 0 0 0 0 0 0 0 0 0 0 0 0 0 0 0 0 0 0 0 0 0 0 0 0 0 0 0 0 0 0 0 0
0 0 0 0 0 0 0 0 0 0 0 0 0 0 0 0 0 0 0 0 0 0 0 0 0 0 0 0 0 0 0 0 0 0 0 0 0 0 0 0 0 0 0
0 0 0 0 0 0 0 0 0 0 0 0 0 0 0 0 0 0 0 0 0 0 0 0 0 0 0 -0 -0 0 0 0 0 0 0 0 0 0 0 0 0 0 0
0 0 0 0 0 0 0 0 0 0 0 0 0 0 0 0 0 0 0 0 0 0 0 0 0 0 0 -0 0 0 0 0 0 0 0 0 0 0 0 0 0 0 0
0 0 0 0 0 0 0 0 0 0 0 0 0 0 0 0 0 0 0 0 0 0 0 0 0 0 0 0 0 0 0 0 0 0 0 0 0 0 0 0 0 0 0
0 0 0 0 0 0 0 0 0 0 0 0 0 0 0 0 0 0 0 0 0 0 0 0 0 0 0 0 0 0 0 0 0 0 0 0 0 0 0 0 0 0 0
0 0 0 0 0 0 0 0 0 0 0 0 0 0 0 0 0 0 0 0 0 0 0 0 0 0 0 0 0 0 0 0 0 0 0 0 0 0 0 0 0 0 0
0 0 0 0 0 0 0 0 0 0 0 0 -0 0 0 0 -0 -0 -0 0 0 0 0 0 0 0 0 0 0 0 0 0 0 0 0 0 0 0 0 0 0 0 0
0 0 0 0 0 0 0 0 0 0 0 0 0 0 0 -0 -0 -0 -0 0 0 0 0 0 0 0 0 0 0 0 0 0 0 0 0 0 0 0 0 0 0 0 0
0 0 0 0 0 0 0 0 0 0 0 0 0 0 0 0 -0 -0 -0 0 0 0 0 0 0 0 0 0 0 0 0 0 0 0 0 0 0 0 0 0 0 0 0
0 0 0 0 0 0 0 0 0 0 0 0 0 0 0 0 -0 -0 0 0 0 0 0 0 0 0 0 0 0 0 0 0 0 0 0 0 0 0 0 0 0 0 0
0 0 0 0 0 0 0 0 0 0 0 0 0 0 0 0 0 0 0 0 0 0 0 0 0 0 0 0 0 0 0 0 0 0 0 0 0 0 0 0 0 0 0
-0 0 0 0 0 0 0 0 0 0 0 0 0 0 0 0 0 -0 -0 -0 0 0 0 0 0 0 0 0 0 0 0 0 0 0 0 0 0 0 0 0 0 0 0
0 0 0 0 0 0 0 0 0 0 0 0 0 0 -0 0 0 0 0 0 0 0 0 0 0 0 0 0 0 0 0 0 0 0 0 0 0 0 0 0 0 0 0
0 0 0 0 0 0 0 0 0 0 0 0 0 0 0 0 0 0 0 0 0 -0 -0 -0 0 0 0 0 0 0 0 0 0 0 0 0 0 0 0 0 0 0 0
0 0 0 0 0 0 0 0 0 0 0 0 0 0 0 0 0 0 0 0 0 -0 -0 -0 -0 0 0 0 0 0 0 0 0 0 0 0 0 0 0 0 0 0 0
0 0 0 0 0 0 0 0 0 0 0 0 0 0 0 0 0 0 0 0 0 -0 -0 -0 -0 -0 -0 -0 -0 0 0 0 0 0 0 0 0 0 0 0 0 0 0
0 0 0 0 0 0 0 0 0 0 0 0 -0 -0 -0 0 0 0 0 -0 -0 -0 -0 -0 -0 -0 -0 -0 -0 -0 -0 0 0 0 0 0 0 0 0 0 0 0 0
Wind_Speed_500mb
38 34 32 32 30 29 30 34 40 44 48 47 42 38 37 34 35 42 47 50 56 63 71 82 90 93 100 105 108 108 104 99 98 87 83 77 74 72 73 74 72 74 68
41 42 44 42 43 43 41 38 37 38 43 50 52 53 50 44 41 40 43 46 54 63 66 72 81 85 94 99 104 110 109 107 106 95 90 91 85 78 75 76 79 79 75
47 51 53 54 53 54 52 49 48 47 46 48 50 54 57 59 56 49 50 51 49 57 65 71 75 77 87 92 99 108 111 109 105 107 95 95 94 89 83 81 84 85 81
51 56 58 59 62 63 64 65 66 66 68 67 65 61 60 61 60 59 58 56 56 62 63 68 73 75 83 88 91 101 104 111 107 108 113 108 105 100 92 89 91 91 90
55 57 62 66 68 70 72 76 81 83 83 81 81 79 72 66 66 65 63 62 62 63 65 71 73 73 76 81 90 96 103 105 108 108 113 111 114 109 110 104 97 91 95
62 67 68 69 73 78 81 85 86 87 88 92 93 93 92 87 78 69 70 72 71 69 69 68 70 76 76 75 83 94 99 103 111 113 111 122 126 127 119 112 100 101 103
66 71 73 76 79 80 80 82 86 90 92 96 99 99 101 101 99 93 82 79 80 80 79 74 73 75 76 79 81 84 95 107 111 108 113 123 119 130 127 118 113 107 108
72 75 77 78 81 84 87 92 98 101 105 108 111 111 112 111 108 106 104 99 95 91 87 84 81 78 77 78 79 87 88 96 111 114 119 117 110 109 118 121 119 112 108
76 78 79 77 82 87 96 102 108 109 116 120 122 126 128 129 122 119 114 107 111 110 102 94 88 88 83 77 82 86 87 93 96 103 119 113 108 109 109 97 105 112 110
80 85 91 94 96 93 94 95 94 95 107 112 125 134 136 138 136 133 120 97 100 117 119 110 101 94 89 79 77 85 93 101 94 92 99 110 111 107 113 113 107 115 114
93 99 102 102 103 103 103 101 100 100 105 107 112 124 128 132 139 135 113 91 94 99 105 113 114 105 94 87 78 80 92 84 93 84 89 98 98 118 114 118 112 110 111
99 101 103 105 105 105 103 104 98 88 84 89 93 102 103 100 99 99 95 89 86 91 100 104 106 103 95 87 71 80 82 86 85 92 90 95 101 109 119 121 116 109 103
98 100 103 104 101 94 89 87 86 80 77 79 79 84 90 87 88 85 84 82 83 86 95 98 92 82 75 74 74 77 83 85 91 94 94 100 104 97 86 99 109 106 106
96 99 99 98 90 82 79 80 81 81 80 79 80 86 92 94 90 87 86 80 70 62 70 89 89 83 83 83 83 83 81 90 98 101 96 92 90 89 95 103 98 109 100
89 92 93 86 82 83 80 77 74 77 77 82 88 92 93 95 88 85 84 87 86 79 78 71 72 75 75 75 77 80 86 86 98 101 93 89 91 92 92 98 95 89 92
87 86 83 83 82 81 82 85 73 68 70 73 78 83 94 95 92 88 85 84 82 80 85 96 84 67 73 65 65 72 84 88 94 92 92 91 92 91 96 94 97 94 90
80 80 80 80 79 78 79 83 88 89 76 74 74 74 77 83 81 80 78 77 74 71 84 86 87 76 70 66 59 65 79 87 86 86 91 89 91 94 98 99 98 98 89
73 74 74 77 76 77 80 83 86 89 93 97 81 76 74 73 71 68 67 66 72 71 75 72 79 70 72 68 64 64 70 80 82 85 83 90 95 101 100 100 103 97 86
71 73 73 73 72 72 73 76 79 82 86 91 96 91 77 74 61 61 61 61 65 70 68 70 67 71 75 68 61 61 64 74 79 84 86 94 100 101 97 98 94 87 88
69 72 69 67 66 66 68 73 78 77 78 75 76 75 74 75 78 71 63 57 54 51 50 52 55 49 61 64 56 61 67 72 76 81 87 91 93 94 92 88 84 82 82
66 65 62 63 61 62 65 65 65 69 70 69 68 65 58 59 57 53 54 48 44 42 42 40 46 40 41 39 49 62 65 69 74 79 82 82 84 82 77 74 73 75 81
56 57 56 57 57 57 59 58 59 60 60 61 61 57 51 46 42 38 36 34 30 23 5 25 24 18 27 39 52 59 59 64 69 73 75 74 71 69 67 67 71 68 62
48 51 51 50 50 52 54 55 57 56 54 54 55 56 54 50 44 40 35 31 29 24 15 4 9 19 28 36 43 43 45 52 57 62 63 62 62 61 60 62 61 61 62
41 46 49 47 47 49 49 53 56 56 56 58 58 58 57 54 50 44 39 35 30 27 23 18 12 5 3 8 10 12 17 24 32 44 45 49 53 56 57 57 58 58 55
35 39 43 47 48 48 48 49 52 55 57 59 59 59 60 60 59 56 51 45 39 34 31 27 23 17 13 9 6 8 12 14 20 27 33 42 49 52 53 52 51 47 42
29 32 36 40 42 43 45 46 48 50 51 52 53 54 55 56 56 55 55 53 51 50 48 46 42 36 33 32 28 24 22 19 21 25 32 38 43 44 42 42 39 36 31
Wind_Direction_500mb
10 8 8 8 7 2 6 352 344 341 339 339 336 330 325 314 296 287 282 275 267 266 266 265 264 261 255 252 252 251 249 246 246 250 254 252 248 247 245 241 236 237 232
353 351 351 354 353 356 358 350 339 332 330 330 331 331 331 322 311 303 288 283 277 272 268 267 267 265 261 258 254 253 250 247 245 244 246 247 245 245 245 243 237 237 233
343 341 341 342 343 342 342 339 335 332 331 327 322 319 319 321 322 318 303 294 280 274 273 269 265 265 265 260 256 254 254 251 247 243 241 245 247 244 240 237 236 234 233
333 331 331 330 330 330 328 324 322 322 322 322 322 319 315 312 313 314 312 307 297 287 277 271 269 263 261 263 259 255 254 253 248 244 240 240 244 243 238 234 232 232 231
332 326 322 323 322 320 317 315 314 314 314 313 311 310 309 307 306 306 305 306 305 300 291 284 274 267 263 260 260 259 254 250 250 244 240 237 236 233 232 234 233 235 234
324 324 320 316 314 314 312 310 308 307 305 305 304 304 302 301 300 301 302 302 300 296 294 291 287 281 268 261 258 256 255 253 248 243 239 239 239 238 237 236 233 229 231
310 314 314 313 311 309 307 304 303 303 302 300 300 298 297 296 296 295 293 292 293 293 294 294 291 286 283 276 264 256 252 251 252 248 242 243 240 241 239 236 234 235 237
314 314 314 312 310 308 306 302 300 299 297 295 293 292 292 290 291 292 292 290 286 286 288 290 291 290 286 283 278 267 256 250 247 245 246 249 246 249 248 246 246 243 237
314 313 311 306 302 300 299 298 298 296 294 291 289 288 288 286 284 284 285 285 285 284 282 283 285 288 288 285 280 275 269 263 252 245 246 245 246 245 248 240 235 231 229
312 309 307 304 301 297 294 292 289 285 286 287 288 288 287 286 282 282 282 279 278 279 280 279 279 280 283 283 274 269 267 269 263 255 242 240 238 240 242 244 241 236 230
312 310 308 307 306 303 301 298 294 288 283 282 281 282 284 286 285 283 283 278 272 270 271 275 276 277 278 280 276 262 265 272 266 254 251 247 240 237 236 238 234 234 233
313 311 311 310 310 309 308 306 305 300 291 286 285 284 284 285 285 285 283 279 274 269 267 267 270 272 275 275 265 259 259 256 254 248 241 241 236 233 234 235 231 230 233
313 314 315 315 315 315 314 313 312 310 301 293 289 288 288 288 287 288 285 279 274 268 263 263 263 264 266 265 259 254 252 248 242 240 239 239 237 234 225 222 224 224 226
316 318 320 320 319 318 317 315 310 305 300 295 293 291 292 292 291 292 290 283 272 276 272 260 257 257 260 263 261 254 249 245 239 241 238 238 232 225 222 223 218 221 218
319 322 323 321 322 319 317 314 307 302 299 298 295 293 293 292 291 292 289 286 283 282 281 279 267 261 258 257 253 249 249 244 238 239 233 232 228 223 218 218 218 212 210
324 323 326 326 324 321 317 314 316 301 299 296 294 292 292 290 291 290 287 283 278 272 270 271 272 267 255 262 257 253 245 243 238 237 231 229 223 216 215 212 214 216 205
323 328 330 329 326 322 319 315 309 319 315 306 302 299 296 295 295 293 289 285 279 271 262 263 262 262 262 259 262 254 245 244 243 236 229 222 214 215 214 210 213 215 212
331 333 334 332 328 327 323 317 312 309 309 316 329 316 306 303 301 297 294 289 280 269 264 263 261 259 257 251 260 258 252 244 239 233 226 218 217 220 209 208 212 212 211
339 339 337 333 331 327 325 320 316 311 310 310 317 326 332 327 315 310 305 295 281 269 266 258 250 259 251 237 256 255 248 235 235 231 227 219 213 210 205 208 211 211 208
345 345 339 336 335 334 333 329 321 317 317 316 319 324 330 332 326 324 327 325 316 297 279 269 280 241 242 245 256 245 233 234 230 222 215 211 207 207 206 209 212 208 204
347 344 342 343 342 340 337 335 335 328 325 325 328 331 332 321 318 315 313 315 313 294 273 252 253 246 240 257 244 232 231 226 219 215 210 208 207 206 210 213 211 205 205
346 348 349 349 347 346 345 346 346 342 341 342 345 348 350 351 349 344 338 341 355 28 325 231 218 238 247 242 232 223 221 217 213 211 208 206 206 208 209 207 203 202 199
352 355 355 354 352 354 357 0 2 1 0 1 3 5 7 8 7 6 6 3 3 6 14 342 245 229 226 223 217 223 227 221 219 216 209 205 204 205 205 201 198 191 188
356 360 2 2 3 7 9 11 15 18 19 21 22 23 22 21 19 19 19 19 20 24 30 36 42 48 188 203 213 222 225 227 223 215 214 207 199 196 194 190 184 184 182
357 3 6 8 10 13 16 19 22 25 26 27 30 33 34 36 37 37 36 37 40 46 55 62 66 67 73 82 112 162 179 194 204 204 200 196 186 181 181 180 178 175 176
352 0 6 10 13 15 16 18 21 23 25 28 28 30 33 37 39 40 42 45 49 54 59 62 65 69 77 82 85 95 107 123 145 159 165 170 170 168 169 170 171 172 173
Wind_Speed_850mb
38 34 32 32 30 29 30 34 40 44 48 47 42 38 37 34 35 42 47 50 56 63 71 82 90 93 100 105 108 108 104 99 98 87 83 77 74 72 73 74 72 74 68
41 42 44 42 43 43 41 38 37 38 43 50 52 53 50 44 41 40 43 46 54 63 66 72 81 85 94 99 104 110 109 107 106 95 90 91 85 78 75 76 79 79 75
47 51 53 54 53 54 52 49 48 47 46 48 50 54 57 59 56 49 50 51 49 57 65 71 75 77 87 92 99 108 111 109 105 107 95 95 94 89 83 81 84 85 81
51 56 58 59 62 63 64 65 66 66 68 67 65 61 60 61 60 59 58 56 56 62 63 68 73 75 83 88 91 101 104 111 107 108 113 108 105 100 92 89 91 91 90
55 57 62 66 68 70 72 76 81 83 83 81 81 79 72 66 66 65 63 62 62 63 65 71 73 73 76 81 90 96 103 105 108 108 113 111 114 109 110 104 97 91 95
62 67 68 69 73 78 81 85 86 87 88 92 93 93 92 87 78 69 70 72 71 69 69 68 70 76 76 75 83 94 99 103 111 113 111 122 126 127 119 112 100 101 103
66 71 73 76 79 80 80 82 86 90 92 96 99 99 101 101 99 93 82 79 80 80 79 74 73 75 76 79 81 84 95 107 111 108 113 123 119 130 127 118 113 107 108
72 75 77 78 81 84 87 92 98 101 105 108 111 111 112 111 108 106 104 99 95 91 87 84 81 78 77 78 79 87 88 96 111 114 119 117 110 109 118 121 119 112 108
76 78 79 77 82 87 96 102 108 109 116 120 122 126 128 129 122 119 114 107 111 110 102 94 88 88 83 77 82 86 87 93 96 103 119 113 108 109 109 97 105 112 110
80 85 91 94 96 93 94 95 94 95 107 112 125 134 136 138 136 133 120 97 100 117 119 110 101 94 89 79 77 85 93 101 94 92 99 110 111 107 113 113 107 115 114
93 99 102 102 103 103 103 101 100 100 105 107 112 124 128 132 139 135 113 91 94 99 105 113 114 105 94 87 78 80 92 84 93 84 89 98 98 118 114 118 112 110 111
99 101 103 105 105 105 103 104 98 88 84 89 93 102 103 100 99 99 95 89 86 91 100 104 106 103 95 87 71 80 82 86 85 92 90 95 101 109 119 121 116 109 103
98 100 103 104 101 94 89 87 86 80 77 79 79 84 90 87 88 85 84 82 83 86 95 98 92 82 75 74 74 77 83 85 91 94 94 100 104 97 86 99 109 106 106
96 99 99 98 90 82 79 80 81 81 80 79 80 86 92 94 90 87 86 80 70 62 70 89 89 83 83 83 83 83 81 90 98 101 96 92 90 89 95 103 98 109 100
89 92 93 86 82 83 80 77 74 77 77 82 88 92 93 95 88 85 84 87 86 79 78 71 72 75 75 75 77 80 86 86 98 101 93 89 91 92 92 98 95 89 92
87 86 83 83 82 81 82 85 73 68 70 73 78 83 94 95 92 88 85 84 82 80 85 96 84 67 73 65 65 72 84 88 94 92 92 91 92 91 96 94 97 94 90
80 80 80 80 79 78 79 83 88 89 76 74 74 74 77 83 81 80 78 77 74 71 84 86 87 76 70 66 59 65 79 87 86 86 91 89 91 94 98 99 98 98 89
73 74 74 77 76 77 80 83 86 89 93 97 81 76 74 73 71 68 67 66 72 71 75 72 79 70 72 68 64 64 70 80 82 85 83 90 95 101 100 100 103 97 86
71 73 73 73 72 72 73 76 79 82 86 91 96 91 77 74 61 61 61 61 65 70 68 70 67 71 75 68 61 61 64 74 79 84 86 94 100 101 97 98 94 87 88
69 72 69 67 66 66 68 73 78 77 78 75 76 75 74 75 78 71 63 57 54 51 50 52 55 49 61 64 56 61 67 72 76 81 87 91 93 94 92 88 84 82 82
66 65 62 63 61 62 65 65 65 69 70 69 68 65 58 59 57 53 54 48 44 42 42 40 46 40 41 39 49 62 65 69 74 79 82 82 84 82 77 74 73 75 81
56 57 56 57 57 57 59 58 59 60 60 61 61 57 51 46 42 38 36 34 30 23 5 25 24 18 27 39 52 59 59 64 69 73 75 74 71 69 67 67 71 68 62
48 51 51 50 50 52 54 55 57 56 54 54 55 56 54 50 44 40 35 31 29 24 15 4 9 19 28 36 43 43 45 52 57 62 63 62 62 61 60 62 61 61 62
41 46 49 47 47 49 49 53 56 56 56 58 58 58 57 54 50 44 39 35 30 27 23 18 12 5 3 8 10 12 17 24 32 44 45 49 53 56 57 57 58 58 55
35 39 43 47 48 48 48 49 52 55 57 59 59 59 60 60 59 56 51 45 39 34 31 27 23 17 13 9 6 8 12 14 20 27 33 42 49 52 53 52 51 47 42
29 32 36 40 42 43 45 46 48 50 51 52 53 54 55 56 56 55 55 53 51 50 48 46 42 36 33 32 28 24 22 19 21 25 32 38 43 44 42 42 39 36 31
Wind_Direction_850mb
10 8 8 8 7 2 6 352 344 341 339 339 336 330 325 314 296 287 282 275 267 266 266 265 264 261 255 252 252 251 249 246 246 250 254 252 248 247 245 241 236 237 232
353 351 351 354 353 356 358 350 339 332 330 330 331 331 331 322 311 303 288 283 277 272 268 267 267 265 261 258 254 253 250 247 245 244 246 247 245 245 245 243 237 237 233
343 341 341 342 343 342 342 339 335 332 331 327 322 319 319 321 322 318 303 294 280 274 273 269 265 265 265 260 256 254 254 251 247 243 241 245 247 244 240 237 236 234 233
333 331 331 330 330 330 328 324 322 322 322 322 322 319 315 312 313 314 312 307 297 287 277 271 269 263 261 263 259 255 254 253 248 244 240 240 244 243 238 234 232 232 231
332 326 322 323 322 320 317 315 314 314 314 313 311 310 309 307 306 306 305 306 305 300 291 284 274 267 263 260 260 259 254 250 250 244 240 237 236 233 232 234 233 235 234
324 324 320 316 314 314 312 310 308 307 305 305 304 304 302 301 300 301 302 302 300 296 294 291 287 281 268 261 258 256 255 253 248 243 239 239 239 238 237 236 233 229 231
310 314 314 313 311 309 307 304 303 303 302 300 300 298 297 296 296 295 293 292 293 293 294 294 291 286 283 276 264 256 252 251 252 248 242 243 240 241 239 236 234 235 237
314 314 314 312 310 308 306 302 300 299 297 295 293 292 292 290 291 292 292 290 286 286 288 290 291 290 286 283 278 267 256 250 247 245 246 249 246 249 248 246 246 243 237
314 313 311 306 302 300 299 298 298 296 294 291 289 288 288 286 284 284 285 285 285 284 282 283 285 288 288 285 280 275 269 263 252 245 246 245 246 245 248 240 235 231 229
312 309 307 304 301 297 294 292 289 285 286 287 288 288 287 286 282 282 282 279 278 279 280 279 279 280 283 283 274 269 267 269 263 255 242 240 238 240 242 244 241 236 230
312 310 308 307 306 303 301 298 294 288 283 282 281 282 284 286 285 283 283 278 272 270 271 275 276 277 278 280 276 262 265 272 266 254 251 247 240 237 236 238 234 234 233
313 311 311 310 310 309 308 306 305 300 291 286 285 284 284 285 285 285 283 279 274 269 267 267 270 272 275 275 265 259 259 256 254 248 241 241 236 233 234 235 231 230 233
313 314 315 315 315 315 314 313 312 310 301 293 289 288 288 288 287 288 285 279 274 268 263 263 263 264 266 265 259 254 252 248 242 240 239 239 237 234 225 222 224 224 226
316 318 320 320 319 318 317 315 310 305 300 295 293 291 292 292 291 292 290 283 272 276 272 260 257 257 260 263 261 254 249 245 239 241 238 238 232 225 222 223 218 221 218
319 322 323 321 322 319 317 314 307 302 299 298 295 293 293 292 291 292 289 286 283 282 281 279 267 261 258 257 253 249 249 244 238 239 233 232 228 223 218 218 218 212 210
324 323 326 326 324 321 317 314 316 301 299 296 294 292 292 290 291 290 287 283 278 272 270 271 272 267 255 262 257 253 245 243 238 237 231 229 223 216 215 212 214 216 205
323 328 330 329 326 322 319 315 309 319 315 306 302 299 296 295 295 293 289 285 279 271 262 263 262 262 262 259 262 254 245 244 243 236 229 222 214 215 214 210 213 215 212
331 333 334 332 328 327 323 317 312 309 309 316 329 316 306 303 301 297 294 289 280 269 264 263 261 259 257 251 260 258 252 244 239 233 226 218 217 220 209 208 212 212 211
339 339 337 333 331 327 325 320 316 311 310 310 317 326 332 327 315 310 305 295 281 269 266 258 250 259 251 237 256 255 248 235 235 231 227 219 213 210 205 208 211 211 208
345 345 339 336 335 334 333 329 321 317 317 316 319 324 330 332 326 324 327 325 316 297 279 269 280 241 242 245 256 245 233 234 230 222 215 211 207 207 206 209 212 208 204
347 344 342 343 342 340 337 335 335 328 325 325 328 331 332 321 318 315 313 315 313 294 273 252 253 246 240 257 244 232 231 226 219 215 210 208 207 206 210 213 211 205 205
346 348 349 349 347 346 345 346 346 342 341 342 345 348 350 351 349 344 338 341 355 28 325 231 218 238 247 242 232 223 221 217 213 211 208 206 206 208 209 207 203 202 199
352 355 355 354 352 354 357 0 2 1 0 1 3 5 7 8 7 6 6 3 3 6 14 342 245 229 226 223 217 223 227 221 219 216 209 205 204 205 205 201 198 191 188
356 360 2 2 3 7 9 11 15 18 19 21 22 23 22 21 19 19 19 19 20 24 30 36 42 48 188 203 213 222 225 227 223 215 214 207 199 196 194 190 184 184 182
357 3 6 8 10 13 16 19 22 25 26 27 30 33 34 36 37 37 36 37 40 46 55 62 66 67 73 82 112 162 179 194 204 204 200 196 186 181 181 180 178 175 176
352 0 6 10 13 15 16 18 21 23 25 28 28 30 33 37 39 40 42 45 49 54 59 62 65 69 77 82 85 95 107 123 145 159 165 170 170 168 169 170 171 172 173